CUPID (49264 NORAD) Tracking and Keplerian Element Data

This shows tracking and keplerian element data for the satellite.

Feedback or suggestion? Click here.




ElementValue
Catalog49264
NameCUPID
Epoch Orbit1034
Epoch Day339.76908473
Epoch Year2021
RAAN46.5431
Inclination97.6133
Eccentricity0.0017985
Argument of Perigee14.8781
Mean Anonmoly345.2969
Mean Motion15.01763102
Decay Rate4E-08
L11 49264U 21088E 21339.76908473 .00000004 00000+0 49044-5 0 9995
L22 49264 97.6133 46.5431 0017985 14.8781 345.2969 15.01763102 10340

Live tracking and technical data element details for CUPID (NORAD 49264). CUPID can be tracked NOW for your location showing map with azimuth and elevation plus other details from your city location.

Track the satellite on the map from your city or location and see movement details for azimuth, elevation, latitude, longitude, range, height, and movement on the map or in text.







IsCatalogInMostPopularTable: catalog: 49264, numindb: 11
Update: records affected: 1



GetName: 49264 CUPID

Hit Count: updated at: Mon, 06 Dec 2021 14:49:48 GMT